Home > Time Zones > World Clock > Weather > Macau > Macau > Past weeks

Flag for Macau Weather past 2 weeks in Macau, Macau

Now
61 °F

Light rain. Partly cloudy.


Feels Like: 61 °F
Forecast: 61 / 65 °F
Wind: 10 mph from North

Location: Taipa

Current Time: Mar 4, 2015 at 3:09:41 AM

Latest Report: Mar 4, 2015 at 2:30 AM


Visibility: 6 mi

Pressure: 29.89 "Hg

Humidity: 94%

Dew point: 59 °F

Location of MacauLocation

Historic Weather in Macau — Graph

°F

Macau temperature yesterday

Maximum temperature yesterday: 70 °F (at 12:30 PM)
Minimum temperature yesterday: 63 °F (at 11:30 PM)
Average temperature yesterday: 66 °F

Past Weeks' High & Low Weather Summary

 TemperatureHumidityPressure
High72 °F (Feb 26, 12:30 PM)100% (Feb 17, 6:30 AM)30.18 "Hg (Feb 17, 6:30 AM)
Low61 °F (Feb 17, 6:30 AM)64% (Mar 1, 4:30 PM)29.80 "Hg (Mar 3, 3:30 PM)
Average66 °F90%29.99 "Hg
* Reported Feb 17 1:00 AM — Mar 4 1:30 AM, Macau, Weather by CustomWeather, © 2015

Note: Actual official high and low records may vary slightly from our data, if they occured in-between our weather recording intervals... More about our weather records

Advertising

Macau weather history for previous 24 hours

 ConditionsComfort  
Time TempWeatherWind HumidityBarometerVisibility
1:30 AM
Wed, Mar 4
61 °FLight rain. Partly cloudy.13 mph94%29.89 "Hg6 mi
1:00 AM63 °FLight rain. Partly cloudy.12 mph94%29.89 "HgN/A
12:30 AM63 °FLight rain. Partly cloudy.12 mph94%29.89 "Hg5 mi
12:00 AM63 °FLight rain. Partly cloudy.10 mph100%29.89 "HgN/A
11:30 PM
Tue, Mar 3
63 °FLight rain. Partly cloudy.13 mph100%29.89 "HgN/A
11:00 PM64 °FLight rain. Partly cloudy.10 mph94%29.89 "Hg6 mi
10:30 PM66 °FLight rain. Partly cloudy.8 mph94%29.89 "Hg4 mi
10:00 PM66 °FLight rain. Partly cloudy.7 mph94%29.86 "Hg4 mi
9:30 PM66 °FLight rain. Partly cloudy.9 mph94%29.86 "Hg4 mi
9:00 PM68 °FFog.1 mph94%29.86 "Hg3 mi
8:30 PM68 °FPassing clouds.3 mph88%29.86 "Hg4 mi
8:00 PM68 °FFog.3 mph94%29.83 "Hg3 mi
7:30 PM68 °FFog.1 mph88%29.83 "Hg3 mi
7:00 PM66 °FFog.No wind94%29.80 "Hg3 mi
6:30 PM68 °FFog.No wind88%29.80 "Hg2 mi
6:00 PM68 °FFog.2 mph88%29.80 "Hg2 mi
5:30 PM66 °FFog.2 mph94%29.80 "Hg2 mi
5:00 PM68 °FFog.6 mph88%29.80 "Hg2 mi
4:30 PM68 °FFog.7 mph88%29.80 "Hg2 mi
4:00 PM68 °FFog.3 mph88%29.80 "Hg2 mi
3:30 PM68 °FFog.2 mph88%29.80 "Hg2 mi
3:00 PM68 °FFog.3 mph88%29.83 "Hg2 mi
2:30 PM68 °FFog.3 mph88%29.83 "Hg2 mi
2:00 PM68 °FFog.5 mph88%29.86 "Hg2 mi
1:30 PM68 °FFog.7 mph88%29.86 "Hg2 mi
1:00 PM68 °FFog.9 mph88%29.89 "Hg2 mi
12:30 PM70 °FFog.8 mph83%29.89 "Hg2 mi
12:00 PM68 °FFog.12 mph88%29.89 "Hg2 mi
11:30 AM68 °FFog.12 mph88%29.92 "Hg2 mi
11:00 AM66 °FFog.13 mph94%29.92 "Hg2 mi
10:30 AM66 °FFog.14 mph94%29.92 "Hg2 mi
10:00 AM66 °FFog.16 mph88%29.92 "Hg3 mi
9:30 AM66 °FFog.17 mph88%29.92 "Hg3 mi
9:00 AM66 °FFog.18 mph88%29.92 "Hg3 mi
8:30 AM64 °FFog.17 mph94%29.92 "Hg3 mi
8:00 AM64 °FFog.18 mph94%29.92 "Hg3 mi
7:30 AM64 °FFog.20 mph94%29.89 "Hg3 mi
7:00 AM64 °FFog.21 mph88%29.89 "Hg3 mi
6:30 AM64 °FPassing clouds.20 mph88%29.89 "Hg4 mi
6:00 AM64 °FPassing clouds.22 mph88%29.86 "Hg5 mi
5:30 AM64 °FPassing clouds.16 mph88%29.89 "Hg5 mi
5:00 AM64 °FPassing clouds.14 mph88%29.89 "Hg5 mi
4:30 AM64 °FPassing clouds.13 mph88%29.89 "Hg6 mi
4:00 AM64 °FLight rain. Passing clouds.10 mph94%29.89 "Hg6 mi
3:30 AM64 °FPassing clouds.7 mph94%29.89 "HgN/A
3:00 AM64 °FPassing clouds.9 mph94%29.89 "Hg6 mi
Weather by CustomWeather, © 2015

See weather overviewHow to use our weather pages